Location: Caltech
(34.1382°N, 118.1253°W)
Time: 23:20:50
(UTC-07:00)

Cosmos 2333 Rocket - Visible Passes

Search period start: 30 June 2016 00:00
Search period end: 10 July 2016 00:00
Orbit: 840 x 862 km, 70.8° (Epoch: 30 June)

Date Brightness Start Highest point End Pass type
(mag) Time Alt. Az. Time Alt. Az. Time Alt. Az.
30 Jun 3.4 21:42:18 10° N 21:47:11 28° ENE 21:49:33 21° E visible
30 Jun 3.2 23:26:16 10° NW 23:31:26 35° WSW 23:31:33 35° WSW visible
01 Jul 3.4 21:30:03 10° N 21:34:58 28° ENE 21:37:44 19° ESE visible
01 Jul 3.2 23:14:02 10° NW 23:19:13 35° WSW 23:19:45 34° WSW visible
02 Jul 3.4 21:17:49 10° N 21:22:43 28° ENE 21:25:57 17° ESE visible
02 Jul 3.2 23:01:48 10° NW 23:06:58 35° WSW 23:07:58 33° SW visible
03 Jul 3.4 21:05:35 10° N 21:10:29 28° ENE 21:14:13 15° ESE visible
03 Jul 3.3 22:49:34 10° NW 22:54:44 35° WSW 22:56:14 30° SW visible
04 Jul 3.4 20:53:21 10° N 20:58:16 28° ENE 21:02:32 13° ESE visible
04 Jul 3.4 22:37:20 10° NW 22:42:31 35° WSW 22:44:33 27° SW visible
05 Jul 3.4 20:41:07 10° N 20:46:01 28° ENE 20:50:53 10° ESE visible
05 Jul 3.4 22:25:06 10° NW 22:30:16 35° WSW 22:32:54 23° SSW visible
06 Jul 3.4 20:28:53 10° N 20:33:48 28° ENE 20:38:41 10° ESE visible
06 Jul 3.4 22:12:53 10° NW 22:18:02 35° WSW 22:21:19 20° SSW visible
07 Jul 3.5 22:00:38 10° NW 22:05:48 35° WSW 22:09:47 16° SSW visible
08 Jul 3.5 21:48:24 10° NW 21:53:34 35° WSW 21:58:18 12° SSW visible
09 Jul 3.6 21:36:10 10° NW 21:41:20 35° WSW 21:46:29 10° SSW visible
